EW6216 Weather Reports


time (UTC)temp
C
wind
direction
speed
KPH
gust
KPH
rain 1hr
cm
rain 24hr
cm
rain mn
cm
humidity
%
barometer
mb
20260503041323 11 193 0.0 0.0 0.00 0.05 0.05 77 1017.0
20260503040321 11 193 0.0 0.0 0.00 0.05 0.05 75 1016.8
20260503035319 12 193 0.0 0.0 0.00 0.05 0.05 74 1017.0
20260503034314 11 193 0.0 0.0 0.00 0.05 0.05 74 1017.0
20260503033352 12 193 0.0 0.0 0.00 0.05 0.05 74 1017.0
20260503032324 12 193 0.0 1.6 0.00 0.05 0.05 74 1016.9
20260503031316 12 64 0.0 0.0 0.00 0.05 0.05 73 1016.7
20260503030354 12 64 0.0 1.6 0.03 0.05 0.05 72 1016.5
20260503025327 12 228 0.0 0.0 0.03 0.05 0.05 71 1016.0
20260503024323 12 227 0.0 1.6 0.03 0.05 0.05 69 1016.0
20260503023314 12 245 0.0 1.6 0.03 0.05 0.05 68 1015.9
20260503022313 13 240 0.0 4.8 0.03 0.05 0.05 68 1015.9
20260503021329 13 259 0.0 1.6 0.03 0.05 0.05 69 1016.0
20260503020321 13 238 0.0 1.6 0.00 0.03 0.03 66 1016.0
20260503015315 13 253 0.0 0.0 0.00 0.03 0.03 70 1015.9
20260503014330 13 255 0.0 3.2 0.00 0.03 0.03 67 1015.8
20260503013351 13 262 0.0 1.6 0.03 0.03 0.03 67 1015.8
20260503012325 13 311 0.0 1.6 0.03 0.03 0.03 75 1016.0
20260503011321 13 48 0.0 0.0 0.03 0.03 0.03 78 1016.3
20260503010338 13 49 0.0 0.0 0.03 0.03 0.03 75 1016.2
20260503005314 14 48 0.0 3.2 0.03 0.03 0.03 66 1016.3
20260503004328 16 134 1.6 9.7 0.03 0.03 0.03 50 1016.1
20260503003327 17 122 0.0 6.4 0.00 0.00 0.00 42 1015.8
20260503002322 17 233 0.0 1.6 0.00 0.00 0.00 45 1015.0
20260503001322 17 124 0.0 1.6 0.00 0.00 0.00 45 1014.6
20260503000354 18 248 0.0 1.6 0.00 0.00 0.00 47 1014.7
20260502235335 18 330 0.0 1.6 0.00 0.00 0.00 37 1014.7
20260502234322 18 70 0.0 4.8 0.00 0.00 0.00 36 1014.4
20260502233320 19 271 0.0 1.6 0.00 0.00 0.00 36 1014.2
20260502232317 19 333 0.0 6.4 0.00 0.00 0.00 34 1014.2
20260502231328 20 308 1.6 4.8 0.00 0.00 0.00 33 1014.4
20260502230327 20 309 0.0 6.4 0.00 0.00 0.00 32 1014.4
20260502225343 21 293 0.0 4.8 0.00 0.00 0.00 30 1014.4
20260502224316 21 23 0.0 3.2 0.00 0.00 0.00 30 1014.5
20260502223311 21 230 1.6 6.4 0.00 0.00 0.00 26 1014.8
20260502222326 21 233 1.6 14.5 0.00 0.00 0.00 25 1014.7
20260502221317 21 210 1.6 4.8 0.00 0.00 0.00 28 1014.7
20260502220333 20 181 0.0 1.6 0.00 0.00 0.00 30 1014.9
20260502215331 20 64 0.0 4.8 0.00 0.00 0.00 29 1015.1
20260502214319 20 39 0.0 11.3 0.00 0.00 0.00 28 1015.2
20260502213316 21 117 6.4 16.1 0.00 0.00 0.00 27 1015.4
20260502212313 21 28 1.6 6.4 0.00 0.00 0.00 30 1015.5
20260502211327 21 146 0.0 4.8 0.00 0.00 0.00 29 1015.7
20260502210317 21 146 0.0 4.8 0.00 0.00 0.00 29 1015.6
20260502205338 20 181 0.0 3.2 0.00 0.00 0.00 29 1015.6
20260502204333 20 162 0.0 4.8 0.00 0.00 0.00 29 1015.7
20260502203324 20 169 0.0 4.8 0.00 0.00 0.00 29 1015.8
20260502202339 20 156 0.0 8.0 0.00 0.00 0.00 28 1015.9
20260502201313 21 224 0.0 3.2 0.00 0.00 0.00 29 1015.9
20260502200329 21 97 0.0 8.0 0.00 0.00 0.00 28 1015.9
20260502195322 21 226 1.6 8.0 0.00 0.00 0.00 28 1016.0
20260502194317 21 133 0.0 6.4 0.00 0.00 0.00 27 1016.0
20260502193313 21 140 1.6 6.4 0.00 0.00 0.00 27 1016.0
20260502192315 21 65 1.6 4.8 0.00 0.00 0.00 27 1016.0
20260502191330 21 155 1.6 9.7 0.00 0.00 0.00 28 1016.1
20260502190322 21 352 1.6 9.7 0.00 0.00 0.00 27 1016.2
20260502185319 21 40 1.6 16.1 0.00 0.00 0.00 28 1016.2
20260502184330 21 72 3.2 11.3 0.00 0.00 0.00 28 1016.3
20260502183328 20 60 3.2 14.5 0.00 0.00 0.00 28 1016.4
20260502182325 20 51 3.2 8.0 0.00 0.00 0.00 29 1016.6
20260502181336 20 59 1.6 4.8 0.00 0.00 0.00 30 1016.8
20260502180355 19 70 1.6 3.2 0.00 0.00 0.00 35 1016.8
20260502170311 18 8 0.0 1.6 0.00 0.00 0.00 36 1017.1
20260502164329 17 48 1.6 4.8 0.00 0.00 0.00 36 1017.1
20260502163349 17 18 0.0 0.0 0.00 0.00 0.00 37 1017.1
20260502162314 17 134 0.0 1.6 0.00 0.00 0.00 36 1017.1
20260502161316 16 146 0.0 0.0 0.00 0.00 0.00 39 1017.2
20260502160313 15 44 0.0 1.6 0.00 0.00 0.00 38 1017.3
20260502152314 12 306 0.0 0.0 0.00 0.00 0.00 54 1017.3
20260502151336 12 306 0.0 1.6 0.00 0.00 0.00 55 1017.3
20260502150324 11 212 0.0 0.0 0.00 0.00 0.00 60 1017.3